Probability
0 0 0 0 0 0 0 0 0 0 0 0 0 0 0 0 0 0 1 1 1 0 0 0 1 0 0 0 0 0 0 0 0 0 0 0 0 0 0 0 0 0 0
0 0 0 0 0 0 0 0 0 0 0 0 0 0 0 0 0 0 0 0 0 0 0 0 1 1 1 1 0 0 0 0 0 0 0 0 0 0 0 0 0 0 0
0 0 0 0 0 0 0 0 0 0 0 0 0 0 0 0 0 0 0 0 0 0 0 0 0 1 1 1 1 1 0 0 0 0 0 0 0 0 0 0 0 0 0
0 0 0 0 0 0 0 0 0 0 0 0 0 0 0 0 0 0 0 0 0 0 0 0 0 0 1 1 0 0 0 0 0 0 0 0 0 0 0 0 0 0 0
0 0 0 0 0 0 0 0 0 0 0 0 0 0 0 0 0 0 0 0 0 0 0 0 0 0 0 0 0 0 0 0 0 0 0 0 0 0 0 0 0 0 0
0 0 0 0 0 0 0 0 0 0 0 0 0 0 0 0 0 0 0 0 0 0 0 0 0 0 0 0 0 0 0 0 0 0 0 0 0 0 0 0 0 0 0
0 0 0 0 0 0 0 0 0 0 0 0 0 0 0 0 0 0 0 0 0 0 0 0 0 0 0 0 0 0 0 0 0 0 0 0 0 0 0 0 0 0 0
1 1 0 0 0 0 0 0 0 0 0 0 0 0 0 0 0 0 0 0 0 0 0 0 0 0 0 0 0 0 0 0 0 0 0 0 0 0 0 0 0 0 0
4 3 1 0 0 0 0 0 0 0 0 0 0 0 0 0 0 0 0 0 0 0 0 0 0 0 0 0 0 0 0 0 0 0 0 0 0 0 0 0 0 0 0
10 7 2 1 0 0 0 0 0 0 0 0 0 0 0 0 0 0 0 0 0 0 0 0 0 0 0 0 0 0 0 0 0 0 0 0 0 0 0 0 0 0 0
21 12 4 2 2 2 3 2 1 0 0 0 0 0 0 0 0 0 0 0 0 0 0 0 0 0 0 0 0 0 0 0 0 0 0 0 0 0 0 0 0 0 0
22 13 6 4 5 7 7 6 5 4 2 0 0 0 0 0 0 0 0 0 0 0 0 0 0 0 0 0 0 0 0 0 0 0 0 0 0 0 0 0 0 0 0
10 7 4 4 6 7 6 6 7 7 3 1 0 0 0 0 0 0 0 0 0 0 0 0 0 0 0 0 0 0 0 0 0 0 0 0 0 0 0 0 0 0 0
1 1 1 3 4 3 2 3 5 5 3 1 0 0 0 0 0 0 0 0 0 0 0 0 0 0 0 0 0 0 0 0 0 0 0 0 0 0 0 0 0 0 0
0 0 0 1 2 1 0 1 1 1 1 2 2 1 1 1 1 0 0 0 0 0 0 0 0 0 0 0 0 0 0 0 0 0 0 0 0 0 0 0 0 0 0
0 0 0 1 1 0 0 0 0 0 0 2 4 2 2 3 3 1 0 0 0 0 0 0 0 0 0 0 0 0 0 0 0 0 0 0 0 0 0 0 0 0 0
0 0 0 0 0 0 0 0 0 0 0 1 2 1 1 3 3 1 0 0 0 0 0 0 0 0 0 0 0 0 0 0 0 0 0 0 0 0 0 0 0 0 0
0 0 0 0 0 0 0 0 0 0 0 0 0 0 0 1 1 1 0 0 0 0 0 0 0 0 0 0 0 0 0 0 0 0 0 0 0 0 0 0 0 0 0
0 0 0 0 0 0 0 0 0 0 0 0 0 0 0 0 0 0 0 0 0 0 0 0 0 0 0 0 0 0 0 0 0 0 0 0 0 0 0 0 0 0 0
0 0 0 0 0 0 0 0 0 0 0 0 0 0 0 0 0 0 0 0 1 1 2 2 1 0 0 0 0 0 0 0 0 0 0 0 0 0 0 0 0 0 0
0 0 0 0 0 0 0 0 0 0 0 0 0 0 0 0 0 0 0 0 2 3 3 2 1 0 0 0 0 0 0 0 0 0 0 0 0 0 0 0 0 0 0
0 0 0 0 0 0 0 0 0 0 0 0 0 0 0 0 0 0 0 0 1 1 2 2 1 0 0 0 0 0 0 0 0 0 0 0 0 0 0 0 0 0 0
2 2 1 0 0 0 0 0 0 0 0 0 0 0 0 0 0 0 0 0 0 0 0 1 1 0 0 0 0 0 0 0 0 0 0 0 0 0 0 0 0 0 0
10 8 4 1 0 0 0 0 0 0 0 0 0 0 0 0 0 0 0 0 0 0 0 0 0 0 0 0 0 0 0 0 0 0 0 0 0 0 0 0 0 0 0
22 17 10 5 2 1 0 0 0 0 0 0 0 0 0 0 0 0 0 0 0 0 0 0 0 0 0 0 0 0 0 0 0 0 0 0 0 0 0 0 0 0 0
29 22 14 8 4 2 1 0 0 0 0 0 0 0 0 0 0 0 0 0 1 1 1 0 0 0 0 0 0 0 0 0 0 0 0 0 0 0 0 0 0 0 0
Wind_Speed
7 7 6 6 6 6 6 5 5 6 6 7 7 8 8 8 9 8 7 14 13 11 10 10 10 10 10 10 9 7 5 3 2 1 1 0 1 2 4 6 6 7 7
7 7 8 7 6 5 4 5 6 6 5 6 7 8 8 8 9 9 8 12 18 16 14 13 12 11 11 10 10 9 8 6 4 2 1 1 2 3 4 5 6 6 8
8 8 8 9 7 7 7 5 7 5 5 6 6 7 7 7 7 8 8 6 9 16 18 17 16 14 12 12 11 11 10 9 7 5 3 2 2 2 3 4 5 6 8
10 8 7 8 7 7 6 6 6 6 6 5 5 5 6 5 7 7 6 7 6 6 12 16 17 16 16 14 14 13 11 10 8 6 5 4 3 3 2 3 4 5 7
11 9 8 8 9 7 6 7 7 7 6 5 5 4 4 5 5 5 7 8 7 6 6 9 13 15 16 16 15 14 12 10 8 7 6 5 4 2 1 2 3 4 5
10 9 8 10 9 7 6 6 8 7 6 6 5 4 3 4 4 5 6 6 6 8 7 6 5 9 13 15 16 15 14 11 9 8 7 6 4 2 1 1 1 3 4
9 7 6 9 9 8 9 9 8 9 7 7 6 5 4 3 4 4 4 4 7 6 7 7 6 5 5 11 15 14 14 13 10 8 7 7 5 3 2 1 1 1 2
8 6 7 6 8 8 10 10 10 8 7 7 7 6 5 4 3 3 3 2 5 5 5 6 7 6 5 4 8 13 14 14 12 10 9 9 7 5 3 2 1 1 1
9 7 8 8 9 9 9 11 12 12 9 9 8 6 4 4 5 4 4 3 3 2 3 4 5 6 5 5 5 10 12 13 13 13 13 13 11 8 4 2 1 1 1
12 11 12 11 11 10 10 11 13 11 11 10 8 6 4 3 4 5 5 5 4 3 3 3 2 3 4 4 5 9 11 12 13 14 14 14 14 12 8 4 3 2 1
11 13 14 13 13 10 11 12 12 13 11 10 9 8 5 3 6 4 6 7 6 5 4 3 2 1 2 3 3 7 8 10 11 12 13 13 14 14 13 10 7 6 4
6 11 12 12 12 9 10 9 10 13 11 12 10 9 7 6 6 5 4 6 6 6 6 4 3 2 1 2 6 5 6 8 9 10 11 13 14 15 15 14 12 10 9
4 7 9 10 9 8 8 7 7 9 11 12 12 9 8 8 5 5 4 4 5 6 6 6 5 4 3 2 4 2 5 6 7 8 10 11 13 14 14 14 13 13 12
4 6 7 8 9 9 8 8 6 6 8 10 12 11 6 7 6 6 5 4 5 5 7 7 6 6 5 4 5 4 5 5 5 6 8 9 11 12 12 12 12 12 12
4 5 6 6 7 8 9 9 6 6 6 7 8 10 8 7 7 7 7 6 6 5 5 7 6 7 5 4 5 5 4 8 4 4 5 7 9 10 10 11 11 11 11
5 6 7 7 7 7 9 9 8 7 6 4 4 7 8 6 7 7 8 8 7 7 5 4 5 7 7 5 6 5 4 6 4 4 4 6 7 8 9 9 10 10 9
6 7 7 8 8 8 8 8 7 7 6 3 4 5 7 7 6 7 7 8 8 7 6 4 5 7 10 8 7 6 5 5 6 5 4 4 5 6 7 8 8 8 8
7 7 8 8 9 9 9 8 8 7 6 4 4 6 8 6 9 8 7 9 8 9 8 7 6 6 10 9 9 7 5 4 3 8 4 3 3 5 5 6 6 6 7
7 8 8 9 9 9 9 9 8 8 8 8 7 8 10 10 10 9 10 10 8 8 7 6 6 5 5 7 8 7 7 5 5 7 6 5 4 4 4 4 5 5 6
8 8 8 8 9 9 9 10 10 11 11 11 11 11 12 12 12 11 10 11 9 9 8 7 7 7 6 6 8 8 7 7 6 6 5 3 5 4 4 4 4 5 5
8 8 8 8 8 7 8 9 9 10 11 11 12 12 12 11 11 9 7 9 10 8 8 8 8 8 8 7 9 8 7 7 7 6 6 6 7 7 8 8 6 5 5
9 9 9 9 8 7 6 6 8 9 10 11 11 12 11 11 13 13 13 11 9 10 10 10 9 10 12 11 8 8 8 7 6 7 7 6 5 5 5 5 9 6 5
9 9 10 9 10 9 7 8 9 8 9 9 10 10 8 8 10 10 13 15 13 13 12 11 11 13 11 11 11 11 10 9 6 7 7 6 6 6 5 6 10 7 6
9 9 9 10 9 8 9 8 8 10 10 9 9 10 9 9 9 9 9 10 11 12 13 13 11 9 6 7 10 10 9 8 5 6 7 6 6 6 5 7 13 9 8
8 8 8 9 9 8 9 8 8 8 8 9 8 7 8 8 7 7 8 7 7 7 8 10 5 1 4 7 8 6 7 8 7 7 8 6 5 6 5 6 10 12 8
7 6 7 7 8 7 7 7 9 7 7 6 5 5 5 5 5 8 8 6 6 5 5 6 7 6 7 9 12 10 8 8 7 7 9 7 6 6 5 6 7 10 9
Wind_Direction
183 168 169 163 169 156 155 150 140 106 92 80 75 78 81 78 82 77 67 63 65 69 76 79 76 72 67 65 65 67 72 77 106 163 195 289 356 12 11 5 360 8 19
188 180 173 169 169 163 159 159 135 124 110 95 87 81 77 78 80 85 84 71 61 58 62 66 68 70 70 69 66 61 57 54 54 57 45 354 357 5 9 10 11 14 22
190 190 180 176 171 169 166 160 137 129 117 117 107 91 79 67 71 76 76 74 73 62 53 54 56 59 63 65 64 61 57 54 50 47 46 30 7 4 9 16 26 24 26
195 190 186 184 178 176 165 157 159 152 144 144 130 110 99 87 72 74 80 80 71 73 65 51 48 50 56 58 56 52 50 50 50 48 44 34 20 6 11 38 40 29 24
200 187 193 189 183 187 176 172 171 163 155 151 135 124 103 87 81 77 77 76 78 70 77 77 64 49 45 46 44 40 37 43 49 50 45 37 25 10 22 55 46 28 19
214 194 196 200 191 185 186 182 174 168 161 165 151 136 113 108 95 75 75 79 79 74 68 63 76 72 53 41 35 31 28 35 46 50 48 42 29 11 335 345 29 24 18
213 205 214 213 201 194 193 191 181 173 174 171 158 150 139 128 99 106 89 91 87 80 86 76 61 51 73 65 39 29 24 24 33 47 52 50 39 27 7 321 313 10 22
189 200 215 229 218 211 205 198 186 183 177 189 185 171 160 157 169 143 132 103 102 97 77 76 77 67 49 56 64 34 23 19 31 49 52 49 42 34 26 1 317 330 14
176 185 209 226 235 223 211 202 192 189 185 198 205 200 192 173 156 171 169 172 133 120 107 73 72 71 62 53 52 46 24 21 32 40 43 42 37 34 34 32 4 278 297
191 195 207 218 228 230 221 207 202 196 190 194 208 235 253 148 180 160 188 194 184 182 156 142 104 82 71 70 79 52 28 29 31 32 32 31 30 31 37 49 50 42 24
202 205 210 213 220 222 223 213 206 200 196 198 199 201 203 196 238 186 168 181 191 200 190 182 167 118 82 73 60 55 33 33 36 36 33 31 29 30 36 46 50 50 47
208 212 211 212 212 210 214 210 205 205 204 204 206 203 201 205 220 214 185 177 185 180 186 189 203 171 142 119 76 59 43 37 42 43 39 36 34 32 33 39 43 44 44
208 217 211 208 203 196 192 184 192 203 211 214 214 212 212 223 221 226 226 191 180 166 179 195 199 189 183 178 123 119 95 46 45 51 47 43 39 36 34 35 37 38 39
210 210 206 202 194 184 175 168 168 191 210 219 222 222 218 226 233 237 241 232 216 191 190 188 180 193 188 189 110 245 129 79 53 61 57 50 44 39 37 36 37 36 35
198 194 187 180 176 174 169 160 159 175 199 220 224 224 221 221 226 237 243 241 240 237 217 193 178 191 189 183 149 216 153 103 73 71 69 59 51 42 37 35 35 33 30
191 183 177 168 164 166 162 155 152 161 175 206 232 237 230 229 226 225 230 237 241 244 242 185 174 173 181 182 179 221 111 132 119 92 85 71 58 48 40 36 33 28 24
186 186 179 173 163 159 156 148 144 147 156 184 231 246 245 235 226 221 222 228 235 238 236 210 161 173 178 190 171 204 180 200 141 124 104 83 65 55 48 42 36 29 27
192 196 185 179 171 165 161 156 153 152 157 185 234 257 257 243 235 230 223 226 228 233 227 211 168 197 194 190 183 191 197 205 181 128 126 101 79 68 62 51 42 38 43
194 200 197 189 183 178 176 176 174 176 187 202 217 237 251 244 235 230 226 230 229 228 228 213 173 174 198 196 191 195 203 197 201 154 167 166 124 96 87 69 54 51 59
198 200 197 196 191 187 190 192 194 199 204 209 216 226 237 240 241 238 231 232 226 220 218 214 181 173 179 195 196 196 198 194 205 190 181 179 148 147 135 118 91 75 73
208 203 196 198 197 199 205 205 206 211 216 219 222 227 233 237 248 253 248 238 222 216 213 213 203 188 183 179 199 197 201 191 198 195 197 192 193 194 168 162 148 115 98
212 206 207 206 203 207 189 205 233 230 229 231 233 233 232 228 234 235 243 250 242 225 218 217 215 213 206 199 188 187 193 190 197 186 212 202 203 209 199 170 126 134 130
208 211 215 213 215 207 179 202 222 245 243 245 246 242 232 227 222 225 221 223 231 240 247 244 232 231 225 197 184 188 197 200 208 157 194 197 188 210 189 130 140 171 166
203 207 212 214 219 210 190 210 214 240 246 244 243 242 236 226 214 217 215 216 221 219 224 236 247 251 240 191 187 196 201 208 203 154 194 213 185 202 183 167 159 183 188
205 205 208 211 213 205 188 206 219 239 244 244 241 237 234 225 193 207 219 221 230 230 221 230 267 27 135 168 184 194 187 187 197 190 194 223 188 191 187 190 165 178 192
208 201 204 210 214 213 174 199 229 241 239 233 229 224 218 240 184 200 223 221 228 224 211 206 206 179 183 185 187 202 193 205 210 191 185 204 184 184 198 192 179 178 191